Regional Weather Roundup
Issued by NWS

Home | Current Version | Previous Version | Graphics & Text | Print | Product List | Glossary On
Versions: 1 2 3 4 5 6 7 8 9 10 11 12 13 14 15 16 17 18 19 20 21 22 23 24 25 26 27 28 29 30 31 32 33 34 35 36 37 38 39 40 41 42 43 44 45 46 47 48 49 50
000
ASUS43 KLSX 010907
RWRMO

WEATHER SUMMARY FOR MISSOURI
NATIONAL WEATHER SERVICE SPRINGFIELD MO
300 AM CST SUN MAR 01 2015

NOTE: "FAIR" INDICATES FEW OR NO CLOUDS BELOW 12,000 FEET WITH NO
       SIGNIFICANT WEATHER AND/OR OBSTRUCTIONS TO VISIBILITY.
       CURRENT SKY AND/OR WEATHER CONDITIONS ARE NOT AVAILABLE FOR
       CHILLICOTHE AND FARMINGTON.

MOZ001>031-035>038-043-044-053-054-011000-
...NORTHERN AND WESTERN MISSOURI...

CITY           SKY/WX    TMP DP  RH WIND       PRES   REMARKS
KANSAS CTY INT CLOUDY    22  19  89 CALM      30.35S
KANSAS C DTWN  CLOUDY    24  21  88 NW3       30.37S
LEE`S SUMMIT   CLOUDY    22  20  92 NW3       30.35S
ST JOSEPH      CLOUDY    22  19  89 CALM      30.38S
CHILLICOTHE      N/A     23  19  85 CALM      30.37F
KIRKSVILLE     LGT SNOW  20  18  92 NE3       30.35F FOG

$$
MOZ066>068-077>081-088>096-101>105-011000-
...SOUTHWEST MISSOURI...

CITY           SKY/WX    TMP DP  RH WIND       PRES   REMARKS
SPRINGFIELD    CLOUDY    27  25  92 CALM      30.29F
JOPLIN         CLOUDY    27  26  96 CALM      30.33S FOG

$$
MOZ032>034-039>042-045>050-055>058-069>072-011000-
...CENTRAL MISSOURI...

CITY           SKY/WX    TMP DP  RH WIND       PRES   REMARKS
COLUMBIA       LGT SNOW  24  22  91 CALM      30.34F FOG
JEFFERSON CITY LGT SNOW  25  23  92 CALM      30.37S FOG
ROLLA          CLOUDY    25  22  88 CALM      30.30F
SEDALIA        LGT SNOW  24  21  88 CALM      30.34F FOG
WHITEMAN AFB   LGT SNOW  23  21  92 NE1       30.33F FOG
WARRENSBURG    LGT SNOW  23  21  93 CALM      30.35F
OSAGE BEACH    CLOUDY    27  23  86 CALM      30.34S

$$
MOZ051-052-059>065-011000-
...EAST CENTRAL MISSOURI...

CITY           SKY/WX    TMP DP  RH WIND       PRES   REMARKS
ST LOUIS INTL  LGT SNOW  26  23  88 CALM      30.37S FOG
SPIRIT OF STL  LGT SNOW  26  23  88 CALM      30.36F FOG
ST CHARLES     CLOUDY    25  23  92 E3        30.38F FOG

$$
MOZ072>076-082>087-097>100-106>115-011000-
...SOUTH CENTRAL AND SOUTHEAST MISSOURI...

CITY           SKY/WX    TMP DP  RH WIND       PRES   REMARKS
CAPE GIRARDEAU FRZ RAIN  31  26  82 E7        30.36F WCI  24
FARMINGTON     CLOUDY    27  27 100 CALM      30.34F
POPLAR BLUFF   FRZ RAIN  31  25  78 N6        30.35F WCI  25
WEST PLAINS    FRZ RAIN  28  26  92 S5        30.30F FOG     WCI  23

$$



USA.gov is the U.S. government's official web portal to all federal, state and local government web resources and services.